Location: Central Falls
(41.8900°N, 71.3929°W)
Time: 11:04:05
(UTC+00:00)

A-11 Canister half - Pass Details

Date: 10 December 2023
Orbit: 1512 x 1687 km, 47.2° (Epoch: 20 February)

Event Time Altitude Azimuth Distance (km) Brightness Sun altitude
Rises 12:12:57 0° 288° (WNW) 4,900 11.0 0.9°
Reaches altitude 10° 12:18:12 10° 265° (W) 3,932 10.7 1.7°
Maximum altitude 12:22:45 14° 238° (WSW) 3,620 10.8 2.4°
Drops below altitude 10° 12:27:20 10° 210° (SSW) 3,943 11.2 3.1°
Sets 12:32:40 0° 188° (S) 4,924 12.1 3.9°
